| time (UTC) | temp C | wind direction | speed KPH | gust KPH | rain 1hr cm | rain 24hr cm | rain mn cm | humidity % | barometer mb |
| 20260503040531 | 11 | 268 | 4.8 | 4.8 | 0.00 | 0.00 | 0.00 | 69 | 1015.6 |
| 20260503040028 | 11 | 275 | 4.8 | 4.8 | 0.00 | 0.00 | 0.00 | 65 | 1015.5 |
| 20260503035525 | 11 | 285 | 4.8 | 4.8 | 0.00 | 0.00 | 0.00 | 63 | 1015.6 |
| 20260503035022 | 11 | 292 | 4.8 | 4.8 | 0.00 | 0.00 | 0.00 | 64 | 1015.4 |
| 20260503034519 | 11 | 297 | 0.0 | 0.0 | 0.00 | 0.00 | 0.00 | 68 | 1015.5 |
| 20260503034016 | 11 | 296 | 1.6 | 1.6 | 0.00 | 0.00 | 0.00 | 68 | 1015.6 |
| 20260503033513 | 11 | 268 | 6.4 | 6.4 | 0.00 | 0.00 | 0.00 | 65 | 1015.2 |
| 20260503033011 | 12 | 273 | 8.0 | 9.7 | 0.00 | 0.00 | 0.00 | 64 | 1015.2 |
| 20260503032509 | 12 | 284 | 6.4 | 6.4 | 0.00 | 0.00 | 0.00 | 63 | 1015.1 |
| 20260503032008 | 12 | 275 | 8.0 | 9.7 | 0.00 | 0.00 | 0.00 | 63 | 1015.2 |
| 20260503031505 | 12 | 272 | 8.0 | 9.7 | 0.00 | 0.00 | 0.00 | 62 | 1015.0 |
| 20260503031001 | 12 | 280 | 6.4 | 6.4 | 0.00 | 0.00 | 0.00 | 63 | 1015.1 |
| 20260503030457 | 13 | 278 | 8.0 | 9.7 | 0.00 | 0.00 | 0.00 | 62 | 1015.2 |
| 20260503025955 | 13 | 278 | 8.0 | 9.7 | 0.00 | 0.00 | 0.00 | 62 | 1015.1 |
| 20260503025451 | 13 | 271 | 8.0 | 9.7 | 0.00 | 0.00 | 0.00 | 62 | 1014.9 |
| 20260503024949 | 13 | 279 | 8.0 | 9.7 | 0.00 | 0.00 | 0.00 | 61 | 1015.0 |
| 20260503024445 | 13 | 277 | 6.4 | 6.4 | 0.00 | 0.00 | 0.00 | 60 | 1015.2 |
| 20260503023943 | 14 | 282 | 6.4 | 6.4 | 0.00 | 0.00 | 0.00 | 60 | 1015.0 |
| 20260503023440 | 14 | 283 | 6.4 | 6.4 | 0.00 | 0.00 | 0.00 | 60 | 1015.0 |
| 20260503022936 | 15 | 273 | 6.4 | 6.4 | 0.00 | 0.00 | 0.00 | 60 | 1015.0 |
| 20260503022431 | 15 | 267 | 8.0 | 9.7 | 0.00 | 0.00 | 0.00 | 59 | 1014.8 |
| 20260503021927 | 16 | 273 | 6.4 | 6.4 | 0.00 | 0.00 | 0.00 | 57 | 1015.0 |
| 20260503021424 | 16 | 276 | 4.8 | 6.4 | 0.00 | 0.00 | 0.00 | 53 | 1014.7 |
| 20260503020921 | 16 | 257 | 4.8 | 4.8 | 0.00 | 0.00 | 0.00 | 53 | 1014.8 |
| 20260503020419 | 16 | 271 | 4.8 | 4.8 | 0.00 | 0.00 | 0.00 | 54 | 1014.9 |
| 20260503015915 | 17 | 277 | 4.8 | 4.8 | 0.00 | 0.00 | 0.00 | 55 | 1014.9 |
| 20260503015412 | 17 | 270 | 3.2 | 3.2 | 0.00 | 0.00 | 0.00 | 51 | 1014.8 |
| 20260503014908 | 18 | 303 | 3.2 | 3.2 | 0.00 | 0.00 | 0.00 | 45 | 1014.9 |
| 20260503014406 | 18 | 197 | 1.6 | 3.2 | 0.00 | 0.00 | 0.00 | 43 | 1014.7 |
| 20260503013903 | 18 | 46 | 0.0 | 0.0 | 0.00 | 0.00 | 0.00 | 38 | 1014.7 |
| 20260503013400 | 18 | 59 | 1.6 | 1.6 | 0.00 | 0.00 | 0.00 | 40 | 1015.1 |
| 20260503012857 | 18 | 40 | 0.0 | 0.0 | 0.00 | 0.00 | 0.00 | 40 | 1014.9 |
| 20260503012355 | 18 | 35 | 0.0 | 0.0 | 0.00 | 0.00 | 0.00 | 42 | 1014.9 |
| 20260503011851 | 18 | 39 | 0.0 | 0.0 | 0.00 | 0.00 | 0.00 | 40 | 1015.0 |
| 20260503011348 | 18 | 30 | 0.0 | 1.6 | 0.00 | 0.00 | 0.00 | 38 | 1015.0 |
| 20260503010845 | 19 | 25 | 1.6 | 1.6 | 0.00 | 0.00 | 0.00 | 38 | 1015.0 |
| 20260503010342 | 19 | 67 | 0.0 | 0.0 | 0.00 | 0.00 | 0.00 | 38 | 1015.0 |
| 20260503005838 | 20 | 45 | 0.0 | 1.6 | 0.00 | 0.00 | 0.00 | 36 | 1015.0 |
| 20260503005336 | 20 | 23 | 3.2 | 6.4 | 0.00 | 0.00 | 0.00 | 35 | 1015.0 |
| 20260503004827 | 21 | 33 | 0.0 | 3.2 | 0.00 | 0.00 | 0.00 | 34 | 1014.9 |
| 20260503004325 | 21 | 2 | 1.6 | 1.6 | 0.00 | 0.00 | 0.00 | 34 | 1015.0 |
| 20260503003822 | 21 | 9 | 3.2 | 4.8 | 0.00 | 0.00 | 0.00 | 32 | 1014.9 |
| 20260503003319 | 21 | 34 | 3.2 | 3.2 | 0.00 | 0.00 | 0.00 | 33 | 1015.1 |
| 20260503002816 | 21 | 43 | 9.7 | 12.9 | 0.00 | 0.00 | 0.00 | 29 | 1015.1 |
| 20260503002313 | 21 | 347 | 3.2 | 3.2 | 0.00 | 0.00 | 0.00 | 32 | 1015.1 |
| 20260503001809 | 21 | 71 | 4.8 | 6.4 | 0.00 | 0.00 | 0.00 | 31 | 1015.1 |
| 20260503001305 | 21 | 86 | 4.8 | 6.4 | 0.00 | 0.00 | 0.00 | 32 | 1015.2 |
| 20260503000803 | 21 | 46 | 3.2 | 3.2 | 0.00 | 0.00 | 0.00 | 33 | 1015.1 |
| 20260503000300 | 20 | 73 | 3.2 | 4.8 | 0.00 | 0.00 | 0.00 | 33 | 1015.1 |
| 20260502235757 | 21 | 26 | 3.2 | 4.8 | 0.00 | 0.00 | 0.00 | 35 | 1015.4 |
| 20260502235255 | 20 | 31 | 1.6 | 1.6 | 0.00 | 0.00 | 0.00 | 36 | 1015.2 |
| 20260502234751 | 20 | 53 | 1.6 | 3.2 | 0.00 | 0.00 | 0.00 | 36 | 1015.4 |
| 20260502234248 | 20 | 9 | 4.8 | 4.8 | 0.00 | 0.00 | 0.00 | 36 | 1015.1 |
| 20260502233744 | 20 | 55 | 0.0 | 0.0 | 0.00 | 0.00 | 0.00 | 34 | 1015.5 |
| 20260502233241 | 21 | 81 | 1.6 | 3.2 | 0.00 | 0.00 | 0.00 | 32 | 1015.4 |
| 20260502232737 | 21 | 18 | 4.8 | 6.4 | 0.00 | 0.00 | 0.00 | 33 | 1015.2 |
| 20260502232234 | 21 | 62 | 6.4 | 9.7 | 0.00 | 0.00 | 0.00 | 35 | 1015.2 |
| 20260502231731 | 21 | 65 | 4.8 | 4.8 | 0.00 | 0.00 | 0.00 | 33 | 1015.5 |
| 20260502231228 | 21 | 72 | 1.6 | 1.6 | 0.00 | 0.00 | 0.00 | 33 | 1015.6 |
| 20260502230727 | 21 | 25 | 3.2 | 3.2 | 0.00 | 0.00 | 0.00 | 35 | 1015.5 |
| 20260502230225 | 21 | 9 | 6.4 | 11.3 | 0.00 | 0.00 | 0.00 | 31 | 1015.7 |
| 20260502225720 | 22 | 22 | 1.6 | 3.2 | 0.00 | 0.00 | 0.00 | 33 | 1015.8 |
| 20260502225218 | 22 | 96 | 3.2 | 4.8 | 0.00 | 0.00 | 0.00 | 29 | 1015.7 |
| 20260502224713 | 22 | 120 | 4.8 | 6.4 | 0.00 | 0.00 | 0.00 | 31 | 1015.9 |
| 20260502224211 | 21 | 45 | 4.8 | 6.4 | 0.00 | 0.00 | 0.00 | 31 | 1015.7 |
| 20260502223708 | 21 | 103 | 4.8 | 6.4 | 0.00 | 0.00 | 0.00 | 33 | 1015.9 |
| 20260502223206 | 21 | 65 | 3.2 | 4.8 | 0.00 | 0.00 | 0.00 | 34 | 1016.0 |
| 20260502222704 | 21 | 27 | 3.2 | 3.2 | 0.00 | 0.00 | 0.00 | 35 | 1016.0 |
| 20260502222200 | 21 | 140 | 3.2 | 4.8 | 0.00 | 0.00 | 0.00 | 31 | 1015.9 |
| 20260502221655 | 21 | 133 | 4.8 | 4.8 | 0.00 | 0.00 | 0.00 | 33 | 1015.8 |
| 20260502221153 | 21 | 50 | 3.2 | 4.8 | 0.00 | 0.00 | 0.00 | 31 | 1016.0 |
| 20260502220649 | 20 | 108 | 3.2 | 4.8 | 0.00 | 0.00 | 0.00 | 34 | 1016.1 |
| 20260502220145 | 20 | 93 | 1.6 | 1.6 | 0.00 | 0.00 | 0.00 | 32 | 1016.1 |
| 20260502215643 | 20 | 113 | 8.0 | 9.7 | 0.00 | 0.00 | 0.00 | 31 | 1016.1 |
| 20260502215139 | 20 | 144 | 1.6 | 3.2 | 0.00 | 0.00 | 0.00 | 32 | 1016.1 |
| 20260502214636 | 21 | 107 | 3.2 | 4.8 | 0.00 | 0.00 | 0.00 | 31 | 1016.2 |
| 20260502214133 | 21 | 124 | 6.4 | 9.7 | 0.00 | 0.00 | 0.00 | 31 | 1016.1 |
| 20260502213631 | 21 | 125 | 6.4 | 9.7 | 0.00 | 0.00 | 0.00 | 31 | 1016.2 |
| 20260502213128 | 21 | 101 | 3.2 | 3.2 | 0.00 | 0.00 | 0.00 | 30 | 1016.3 |
| 20260502212627 | 21 | 107 | 1.6 | 3.2 | 0.00 | 0.00 | 0.00 | 32 | 1016.3 |
| 20260502212125 | 20 | 99 | 1.6 | 3.2 | 0.00 | 0.00 | 0.00 | 31 | 1016.6 |
| 20260502211620 | 20 | 96 | 4.8 | 4.8 | 0.00 | 0.00 | 0.00 | 33 | 1016.6 |
| 20260502211117 | 20 | 116 | 3.2 | 3.2 | 0.00 | 0.00 | 0.00 | 34 | 1016.5 |
| 20260502210615 | 20 | 64 | 3.2 | 3.2 | 0.00 | 0.00 | 0.00 | 33 | 1016.7 |
| 20260502210111 | 20 | 82 | 0.0 | 0.0 | 0.00 | 0.00 | 0.00 | 34 | 1016.7 |
| 20260502205608 | 21 | 101 | 3.2 | 3.2 | 0.00 | 0.00 | 0.00 | 32 | 1016.7 |
| 20260502205105 | 20 | 301 | 3.2 | 3.2 | 0.00 | 0.00 | 0.00 | 30 | 1016.8 |
| 20260502204601 | 21 | 3 | 3.2 | 3.2 | 0.00 | 0.00 | 0.00 | 31 | 1017.0 |
| 20260502204100 | 22 | 89 | 6.4 | 9.7 | 0.00 | 0.00 | 0.00 | 30 | 1017.0 |
| 20260502203556 | 22 | 73 | 1.6 | 1.6 | 0.00 | 0.00 | 0.00 | 30 | 1017.2 |
| 20260502203054 | 21 | 36 | 0.0 | 1.6 | 0.00 | 0.00 | 0.00 | 32 | 1017.1 |
| 20260502202549 | 21 | 52 | 8.0 | 11.3 | 0.00 | 0.00 | 0.00 | 31 | 1017.3 |
| 20260502202048 | 21 | 96 | 6.4 | 11.3 | 0.00 | 0.00 | 0.00 | 34 | 1017.1 |
| 20260502201543 | 20 | 15 | 3.2 | 4.8 | 0.00 | 0.00 | 0.00 | 34 | 1017.3 |
| 20260502201040 | 21 | 136 | 6.4 | 6.4 | 0.00 | 0.00 | 0.00 | 28 | 1017.3 |
| 20260502200536 | 21 | 34 | 3.2 | 4.8 | 0.00 | 0.00 | 0.00 | 36 | 1017.4 |
| 20260502200034 | 21 | 71 | 6.4 | 6.4 | 0.00 | 0.00 | 0.00 | 32 | 1017.7 |
| 20260502195531 | 21 | 55 | 3.2 | 4.8 | 0.00 | 0.00 | 0.00 | 31 | 1017.7 |
| 20260502195027 | 21 | 63 | 3.2 | 3.2 | 0.00 | 0.00 | 0.00 | 34 | 1017.7 |
| 20260502194524 | 20 | 0 | 0.0 | 1.6 | 0.00 | 0.00 | 0.00 | 38 | 1017.6 |
| 20260502194020 | 20 | 114 | 8.0 | 11.3 | 0.00 | 0.00 | 0.00 | 32 | 1018.0 |
| 20260502193518 | 20 | 75 | 1.6 | 3.2 | 0.00 | 0.00 | 0.00 | 34 | 1017.8 |
| 20260502193014 | 20 | 99 | 6.4 | 9.7 | 0.00 | 0.00 | 0.00 | 32 | 1017.9 |
| 20260502192510 | 20 | 53 | 1.6 | 3.2 | 0.00 | 0.00 | 0.00 | 35 | 1018.0 |
| 20260502192008 | 20 | 86 | 4.8 | 4.8 | 0.00 | 0.00 | 0.00 | 32 | 1018.0 |
| 20260502191504 | 20 | 79 | 6.4 | 9.7 | 0.00 | 0.00 | 0.00 | 34 | 1018.1 |
| 20260502191002 | 20 | 96 | 3.2 | 3.2 | 0.00 | 0.00 | 0.00 | 37 | 1018.2 |
| 20260502190459 | 20 | 93 | 1.6 | 1.6 | 0.00 | 0.00 | 0.00 | 39 | 1018.1 |
| 20260502185955 | 20 | 74 | 0.0 | 0.0 | 0.00 | 0.00 | 0.00 | 40 | 1018.2 |
| 20260502185451 | 20 | 64 | 6.4 | 9.7 | 0.00 | 0.00 | 0.00 | 36 | 1018.4 |
| 20260502184948 | 18 | 8 | 1.6 | 1.6 | 0.00 | 0.00 | 0.00 | 36 | 1018.5 |
| 20260502184443 | 19 | 74 | 9.7 | 11.3 | 0.00 | 0.00 | 0.00 | 34 | 1018.4 |
| 20260502183940 | 19 | 65 | 9.7 | 11.3 | 0.00 | 0.00 | 0.00 | 35 | 1018.5 |
| 20260502183437 | 19 | 70 | 1.6 | 3.2 | 0.00 | 0.00 | 0.00 | 38 | 1018.5 |
| 20260502182931 | 19 | 14 | 1.6 | 1.6 | 0.00 | 0.00 | 0.00 | 35 | 1018.5 |
| 20260502182427 | 18 | 86 | 4.8 | 6.4 | 0.00 | 0.00 | 0.00 | 36 | 1018.8 |
| 20260502181924 | 18 | 115 | 3.2 | 4.8 | 0.00 | 0.00 | 0.00 | 38 | 1018.7 |
| 20260502181422 | 18 | 24 | 3.2 | 4.8 | 0.00 | 0.00 | 0.00 | 37 | 1018.9 |
| 20260502180920 | 18 | 84 | 6.4 | 11.3 | 0.00 | 0.00 | 0.00 | 38 | 1019.0 |
| 20260502180417 | 18 | 115 | 9.7 | 11.3 | 0.00 | 0.00 | 0.00 | 35 | 1019.1 |
| 20260502170336 | 17 | 62 | 3.2 | 4.8 | 0.00 | 0.00 | 0.00 | 41 | 1019.5 |
| 20260502164323 | 17 | 101 | 3.2 | 3.2 | 0.00 | 0.00 | 0.00 | 42 | 1019.2 |
| 20260502163819 | 16 | 141 | 3.2 | 4.8 | 0.00 | 0.00 | 0.00 | 47 | 1019.3 |
| 20260502163316 | 16 | 104 | 1.6 | 1.6 | 0.00 | 0.00 | 0.00 | 50 | 1019.4 |
| 20260502162813 | 15 | 115 | 3.2 | 3.2 | 0.00 | 0.00 | 0.00 | 52 | 1019.3 |
| 20260502162310 | 15 | 119 | 3.2 | 4.8 | 0.00 | 0.00 | 0.00 | 54 | 1019.3 |
| 20260502161807 | 15 | 108 | 3.2 | 4.8 | 0.00 | 0.00 | 0.00 | 54 | 1019.3 |
| 20260502161303 | 14 | 71 | 0.0 | 0.0 | 0.00 | 0.00 | 0.00 | 56 | 1019.4 |
| 20260502160801 | 13 | 112 | 3.2 | 4.8 | 0.00 | 0.00 | 0.00 | 56 | 1019.4 |
| 20260502160300 | 13 | 94 | 3.2 | 3.2 | 0.00 | 0.00 | 0.00 | 58 | 1019.4 |
| 20260502152229 | 12 | 62 | 0.0 | 0.0 | 0.00 | 0.00 | 0.00 | 65 | 1019.7 |
| 20260502151727 | 11 | 111 | 3.2 | 3.2 | 0.00 | 0.00 | 0.00 | 69 | 1019.4 |
| 20260502151223 | 11 | 118 | 3.2 | 3.2 | 0.00 | 0.00 | 0.00 | 69 | 1019.2 |
| 20260502150721 | 11 | 84 | 1.6 | 1.6 | 0.00 | 0.00 | 0.00 | 65 | 1019.3 |
| 20260502150218 | 11 | 79 | 0.0 | 1.6 | 0.00 | 0.00 | 0.00 | 66 | 1019.3 |
| 20260502130606 | 4 | 236 | 1.6 | 1.6 | 0.00 | 0.00 | 0.00 | 86 | 1019.1 |
| 20260502130104 | 4 | 266 | 1.6 | 1.6 | 0.00 | 0.00 | 0.00 | 87 | 1019.2 |
| 20260502123549 | 4 | 284 | 3.2 | 3.2 | 0.00 | 0.00 | 0.00 | 84 | 1019.1 |
| 20260502123045 | 5 | 259 | 4.8 | 4.8 | 0.00 | 0.00 | 0.00 | 83 | 1018.9 |
| 20260502122542 | 5 | 260 | 3.2 | 3.2 | 0.00 | 0.00 | 0.00 | 82 | 1018.8 |
| 20260502122040 | 5 | 290 | 4.8 | 4.8 | 0.00 | 0.00 | 0.00 | 82 | 1019.0 |
| 20260502121537 | 5 | 271 | 1.6 | 1.6 | 0.00 | 0.00 | 0.00 | 81 | 1018.8 |
| 20260502121034 | 5 | 31 | 0.0 | 0.0 | 0.00 | 0.00 | 0.00 | 81 | 1018.9 |
| 20260502120530 | 5 | 294 | 3.2 | 4.8 | 0.00 | 0.00 | 0.00 | 80 | 1018.8 |
| 20260502115525 | 5 | 10 | 1.6 | 1.6 | 0.00 | 0.00 | 0.00 | 84 | 1019.0 |
| 20260502115021 | 5 | 2 | 0.0 | 1.6 | 0.00 | 0.00 | 0.00 | 84 | 1019.1 |
| 20260502114518 | 5 | 266 | 0.0 | 0.0 | 0.00 | 0.00 | 0.00 | 84 | 1019.0 |
| 20260502114015 | 5 | 127 | 1.6 | 1.6 | 0.00 | 0.00 | 0.00 | 83 | 1019.1 |
| 20260502113512 | 4 | 266 | 3.2 | 3.2 | 0.00 | 0.00 | 0.00 | 84 | 1019.0 |
| 20260502113011 | 4 | 186 | 0.0 | 0.0 | 0.00 | 0.00 | 0.00 | 85 | 1019.0 |
| 20260502112508 | 4 | 6 | 0.0 | 1.6 | 0.00 | 0.00 | 0.00 | 84 | 1019.0 |
| 20260502112005 | 4 | 333 | 1.6 | 1.6 | 0.00 | 0.00 | 0.00 | 84 | 1019.0 |
| 20260502111502 | 4 | 218 | 1.6 | 1.6 | 0.00 | 0.00 | 0.00 | 84 | 1019.0 |
| 20260502111000 | 4 | 295 | 3.2 | 3.2 | 0.00 | 0.00 | 0.00 | 85 | 1018.9 |
| 20260502110457 | 4 | 264 | 6.4 | 9.7 | 0.00 | 0.00 | 0.00 | 83 | 1019.0 |
| 20260502105954 | 5 | 269 | 6.4 | 6.4 | 0.00 | 0.00 | 0.00 | 81 | 1019.1 |
| 20260502105452 | 5 | 281 | 8.0 | 9.7 | 0.00 | 0.00 | 0.00 | 82 | 1019.0 |
| 20260502104950 | 3 | 282 | 4.8 | 4.8 | 0.00 | 0.00 | 0.00 | 86 | 1018.9 |
| 20260502104447 | 3 | 260 | 6.4 | 6.4 | 0.00 | 0.00 | 0.00 | 86 | 1019.1 |
| 20260502103944 | 3 | 280 | 8.0 | 9.7 | 0.00 | 0.00 | 0.00 | 85 | 1019.0 |
| 20260502103441 | 4 | 271 | 4.8 | 4.8 | 0.00 | 0.00 | 0.00 | 85 | 1018.9 |
| 20260502102938 | 4 | 258 | 4.8 | 4.8 | 0.00 | 0.00 | 0.00 | 84 | 1018.9 |
| 20260502102435 | 5 | 262 | 4.8 | 4.8 | 0.00 | 0.00 | 0.00 | 82 | 1018.5 |
| 20260502101932 | 5 | 277 | 3.2 | 3.2 | 0.00 | 0.00 | 0.00 | 83 | 1018.5 |
| 20260502101431 | 4 | 282 | 1.6 | 3.2 | 0.00 | 0.00 | 0.00 | 84 | 1018.4 |
| 20260502100928 | 5 | 315 | 1.6 | 3.2 | 0.00 | 0.00 | 0.00 | 82 | 1018.4 |
| 20260502100428 | 5 | 260 | 3.2 | 3.2 | 0.00 | 0.00 | 0.00 | 81 | 1018.1 |
| 20260502091401 | 5 | 264 | 4.8 | 4.8 | 0.00 | 0.00 | 0.00 | 80 | 1017.8 |
| 20260502090859 | 5 | 275 | 6.4 | 6.4 | 0.00 | 0.00 | 0.00 | 81 | 1017.8 |
| 20260502090355 | 5 | 278 | 6.4 | 6.4 | 0.00 | 0.00 | 0.00 | 81 | 1018.0 |
| 20260502071250 | 7 | 277 | 6.4 | 6.4 | 0.00 | 0.00 | 0.00 | 74 | 1017.9 |
| 20260502070749 | 6 | 280 | 6.4 | 6.4 | 0.00 | 0.00 | 0.00 | 76 | 1017.9 |
| 20260502070246 | 7 | 268 | 6.4 | 6.4 | 0.00 | 0.00 | 0.00 | 76 | 1017.9 |
| 20260502065744 | 7 | 275 | 6.4 | 6.4 | 0.00 | 0.00 | 0.00 | 73 | 1018.1 |
| 20260502065242 | 7 | 275 | 6.4 | 6.4 | 0.00 | 0.00 | 0.00 | 75 | 1017.9 |
| 20260502064740 | 7 | 273 | 6.4 | 6.4 | 0.00 | 0.00 | 0.00 | 75 | 1017.8 |
| 20260502064238 | 7 | 275 | 4.8 | 4.8 | 0.00 | 0.00 | 0.00 | 75 | 1017.9 |
| 20260502063735 | 8 | 268 | 6.4 | 6.4 | 0.00 | 0.00 | 0.00 | 70 | 1017.7 |
| 20260502063233 | 8 | 286 | 4.8 | 4.8 | 0.00 | 0.00 | 0.00 | 70 | 1017.8 |
| 20260502062730 | 7 | 279 | 4.8 | 4.8 | 0.00 | 0.00 | 0.00 | 75 | 1017.9 |
| 20260502062227 | 7 | 253 | 1.6 | 1.6 | 0.00 | 0.00 | 0.00 | 78 | 1017.8 |
| 20260502061726 | 8 | 249 | 3.2 | 4.8 | 0.00 | 0.00 | 0.00 | 73 | 1017.7 |
| 20260502061223 | 8 | 284 | 3.2 | 4.8 | 0.00 | 0.00 | 0.00 | 70 | 1017.7 |
| 20260502060718 | 8 | 292 | 3.2 | 3.2 | 0.00 | 0.00 | 0.00 | 70 | 1017.6 |
| 20260502060214 | 8 | 276 | 4.8 | 4.8 | 0.00 | 0.00 | 0.00 | 72 | 1017.7 |
| 20260502055712 | 7 | 279 | 4.8 | 4.8 | 0.00 | 0.00 | 0.00 | 75 | 1017.6 |
| 20260502055210 | 7 | 276 | 3.2 | 3.2 | 0.00 | 0.00 | 0.00 | 76 | 1017.4 |
| 20260502054709 | 8 | 259 | 4.8 | 4.8 | 0.00 | 0.00 | 0.00 | 75 | 1017.3 |
| 20260502054206 | 8 | 270 | 6.4 | 6.4 | 0.00 | 0.00 | 0.00 | 72 | 1017.4 |
| 20260502053703 | 9 | 267 | 6.4 | 6.4 | 0.00 | 0.00 | 0.00 | 70 | 1017.4 |
| 20260502053200 | 8 | 277 | 6.4 | 6.4 | 0.00 | 0.00 | 0.00 | 69 | 1017.4 |
| 20260502052658 | 8 | 283 | 6.4 | 6.4 | 0.00 | 0.00 | 0.00 | 73 | 1017.3 |
| 20260502052156 | 8 | 278 | 1.6 | 1.6 | 0.00 | 0.00 | 0.00 | 73 | 1017.3 |
| 20260502051654 | 8 | 294 | 1.6 | 1.6 | 0.00 | 0.00 | 0.00 | 74 | 1017.3 |
| 20260502051152 | 8 | 278 | 1.6 | 3.2 | 0.00 | 0.00 | 0.00 | 72 | 1017.3 |
| 20260502050648 | 9 | 271 | 4.8 | 4.8 | 0.00 | 0.00 | 0.00 | 72 | 1017.3 |
| 20260502050145 | 9 | 267 | 4.8 | 4.8 | 0.00 | 0.00 | 0.00 | 71 | 1017.2 |
| 20260502045641 | 10 | 273 | 6.4 | 6.4 | 0.00 | 0.00 | 0.00 | 68 | 1017.2 |
| 20260502045139 | 10 | 280 | 8.0 | 9.7 | 0.00 | 0.00 | 0.00 | 66 | 1017.2 |
| 20260502044635 | 10 | 273 | 6.4 | 6.4 | 0.00 | 0.00 | 0.00 | 66 | 1017.0 |
| 20260502044131 | 10 | 274 | 6.4 | 6.4 | 0.00 | 0.00 | 0.00 | 67 | 1017.1 |
| 20260502043630 | 10 | 281 | 6.4 | 6.4 | 0.00 | 0.00 | 0.00 | 69 | 1017.1 |
| 20260502043127 | 10 | 268 | 6.4 | 6.4 | 0.00 | 0.00 | 0.00 | 67 | 1017.0 |
| 20260502042626 | 10 | 270 | 6.4 | 6.4 | 0.00 | 0.00 | 0.00 | 66 | 1017.0 |
| 20260502042124 | 10 | 273 | 6.4 | 6.4 | 0.00 | 0.00 | 0.00 | 67 | 1016.8 |
| 20260502041621 | 11 | 274 | 4.8 | 4.8 | 0.00 | 0.00 | 0.00 | 65 | 1016.9 |
| 20260502041118 | 11 | 272 | 6.4 | 6.4 | 0.00 | 0.00 | 0.00 | 59 | 1016.9 |
| 20260502040615 | 11 | 276 | 6.4 | 6.4 | 0.00 | 0.00 | 0.00 | 65 | 1016.7 |